ICE201 ENBR-BIKF

Flight info

Callsign ICE201
Flight time 1h 59m
Altitude 36000
Route REKLI DCT VALDI/M079F360 DCT ING DCT NASBU NASBU4K
Aircraft B738/M-SDE2E3FGHIRWXY/LB1

Departure

Time 2026-04-30 19:05
Airport Bergen Airport, Flesland (ENBR)

Arrival

Time 2026-04-30 21:05
Airport Keflavik International Airport (BIKF)
Time Latitude Longitude Altitude Speed Heading
2026-04-30 18:38 60.28931 5.22558 174 ft 0 kts 107°
2026-04-30 18:56 60.28934 5.22539 174 ft 2 kts 108°
2026-04-30 18:56 60.28939 5.22510 174 ft 2 kts 107°
2026-04-30 18:57 60.28947 5.22459 174 ft 2 kts 107°
2026-04-30 18:57 60.28951 5.22431 174 ft 2 kts 107°
2026-04-30 18:57 60.28956 5.22402 174 ft 2 kts 107°
2026-04-30 18:58 60.28958 5.22388 174 ft 0 kts 107°
2026-04-30 19:00 60.28958 5.22389 174 ft 0 kts 107°
2026-04-30 19:00 60.28967 5.22438 174 ft 8 kts 15°
2026-04-30 19:00 60.29023 5.22361 174 ft 15 kts 347°
2026-04-30 19:01 60.29450 5.22220 174 ft 43 kts 351°
2026-04-30 19:01 60.29630 5.22160 174 ft 20 kts 351°
2026-04-30 19:02 60.29720 5.22123 174 ft 1 kts 311°
2026-04-30 19:02 60.29774 5.21989 174 ft 15 kts 343°
2026-04-30 19:03 60.30093 5.21882 174 ft 30 kts 351°
2026-04-30 19:03 60.30367 5.21792 174 ft 15 kts 347°
2026-04-30 19:04 60.30424 5.21509 174 ft 15 kts 229°
2026-04-30 19:04 60.30208 5.21525 174 ft 55 kts 172°
2026-04-30 19:05 60.28407 5.22103 407 ft 183 kts 172°
2026-04-30 19:05 60.25756 5.22964 1822 ft 215 kts 170°
2026-04-30 19:06 60.22506 5.24082 3040 ft 254 kts 170°
2026-04-30 19:06 60.20761 5.24678 3919 ft 262 kts 170°
2026-04-30 19:06 60.17149 5.25893 5801 ft 271 kts 170°
2026-04-30 19:07 60.13387 5.26766 7627 ft 279 kts 185°
2026-04-30 19:07 60.11542 5.25782 8511 ft 282 kts 206°
2026-04-30 19:08 60.08930 5.20431 10162 ft 289 kts 245°
2026-04-30 19:08 60.08437 5.12925 11676 ft 297 kts 284°
2026-04-30 19:08 60.09161 5.09388 12452 ft 299 kts 298°
2026-04-30 19:09 60.11899 5.03407 12856 ft 341 kts 334°
2026-04-30 19:09 60.13958 5.02182 13075 ft 359 kts 352°
2026-04-30 19:09 60.16188 5.02150 13437 ft 370 kts
2026-04-30 19:10 60.21508 5.03593 14689 ft 383 kts 358°
2026-04-30 19:10 60.26349 5.00446 15962 ft 390 kts 322°
2026-04-30 19:11 60.28178 4.96437 16759 ft 388 kts 303°
2026-04-30 19:11 60.30177 4.86271 17932 ft 396 kts 288°
2026-04-30 19:11 60.31048 4.80995 18408 ft 402 kts 289°
2026-04-30 19:12 60.31949 4.75660 19027 ft 404 kts 289°
2026-04-30 19:12 60.32848 4.70328 19543 ft 407 kts 289°
2026-04-30 19:12 60.33769 4.64856 20092 ft 410 kts 289°
2026-04-30 19:13 60.35605 4.53907 21103 ft 416 kts 289°
2026-04-30 19:13 60.37463 4.42758 22056 ft 422 kts 289°
2026-04-30 19:13 60.38403 4.37097 22510 ft 425 kts 289°
2026-04-30 19:14 60.39335 4.31466 22952 ft 428 kts 288°
2026-04-30 19:14 60.40282 4.25727 23379 ft 431 kts 288°
2026-04-30 19:14 60.41227 4.19986 23798 ft 434 kts 288°
2026-04-30 19:14 60.42171 4.14223 24198 ft 436 kts 288°
2026-04-30 19:15 60.43133 4.08341 24598 ft 439 kts 288°
2026-04-30 19:15 60.45045 3.96589 25351 ft 444 kts 288°
2026-04-30 19:15 60.46058 3.90633 25707 ft 447 kts 291°
2026-04-30 19:16 60.47246 3.84848 26063 ft 449 kts 294°
2026-04-30 19:16 60.48500 3.79027 26405 ft 451 kts 294°
2026-04-30 19:16 60.50980 3.67319 27057 ft 456 kts 293°
2026-04-30 19:17 60.52175 3.61635 27356 ft 458 kts 293°
2026-04-30 19:17 60.54606 3.50015 27940 ft 462 kts 293°
2026-04-30 19:17 60.55793 3.44310 28215 ft 464 kts 293°
2026-04-30 19:18 60.57856 3.34355 28714 ft 466 kts 292°
2026-04-30 19:18 60.59503 3.26371 29146 ft 466 kts 292°
2026-04-30 19:18 60.60751 3.20296 29481 ft 466 kts 292°
2026-04-30 19:19 60.61991 3.14242 29818 ft 466 kts 292°
2026-04-30 19:19 60.63211 3.08272 30153 ft 466 kts 292°
2026-04-30 19:19 60.65677 2.96148 30829 ft 465 kts 292°
2026-04-30 19:20 60.66902 2.90094 31161 ft 464 kts 292°
2026-04-30 19:20 60.68131 2.84004 31490 ft 463 kts 292°
2026-04-30 19:20 60.70555 2.71936 32127 ft 462 kts 292°
2026-04-30 19:21 60.71776 2.65834 32442 ft 461 kts 292°
2026-04-30 19:21 60.74182 2.53748 33051 ft 460 kts 292°
2026-04-30 19:22 60.76575 2.41658 33639 ft 459 kts 292°
2026-04-30 19:22 60.80130 2.23562 34478 ft 457 kts 291°
2026-04-30 19:23 60.83604 2.05716 35268 ft 455 kts 291°
2026-04-30 19:24 60.85926 1.93698 35769 ft 454 kts 291°
2026-04-30 19:24 60.87089 1.87647 35976 ft 454 kts 291°
2026-04-30 19:25 60.92763 1.57880 36004 ft 451 kts 291°
2026-04-30 19:26 60.97340 1.33534 35999 ft 467 kts 291°
2026-04-30 19:27 61.00819 1.14820 35999 ft 465 kts 291°
2026-04-30 19:28 61.04254 0.96164 36000 ft 465 kts 291°
2026-04-30 19:29 61.08786 0.71278 35999 ft 465 kts 291°
2026-04-30 19:30 61.13260 0.46386 36000 ft 465 kts 291°
2026-04-30 19:31 61.17635 0.21727 35999 ft 465 kts 290°
2026-04-30 19:31 61.20937 0.02896 35999 ft 465 kts 290°
2026-04-30 19:32 61.23548 -0.09325 36000 ft 465 kts 296°
2026-04-30 19:32 61.26390 -0.21375 36000 ft 465 kts 296°
2026-04-30 19:33 61.29148 -0.33265 36000 ft 465 kts 296°
2026-04-30 19:33 61.31946 -0.45425 36000 ft 465 kts 296°
2026-04-30 19:34 61.34719 -0.57567 36000 ft 465 kts 296°
2026-04-30 19:35 61.38836 -0.75737 35999 ft 465 kts 295°
2026-04-30 19:35 61.41577 -0.87928 35999 ft 465 kts 295°
2026-04-30 19:36 61.44309 -1.00148 36000 ft 465 kts 295°
2026-04-30 19:36 61.48394 -1.18561 35999 ft 465 kts 295°
2026-04-30 19:37 61.51095 -1.30820 35999 ft 465 kts 295°
2026-04-30 19:37 61.53782 -1.43088 35999 ft 465 kts 295°
2026-04-30 19:38 61.56455 -1.55365 35999 ft 465 kts 295°
2026-04-30 19:38 61.59126 -1.67706 35999 ft 465 kts 294°
2026-04-30 19:39 61.61773 -1.80002 36000 ft 465 kts 294°
2026-04-30 19:39 61.64434 -1.92441 36000 ft 465 kts 294°
2026-04-30 19:40 61.67058 -2.04781 35999 ft 465 kts 294°
2026-04-30 19:40 61.69676 -2.17167 35999 ft 465 kts 294°
2026-04-30 19:41 61.72295 -2.29628 35999 ft 465 kts 294°
2026-04-30 19:41 61.74893 -2.42068 35999 ft 465 kts 294°
2026-04-30 19:42 61.77481 -2.54530 35999 ft 465 kts 294°
2026-04-30 19:42 61.79952 -2.66503 35999 ft 465 kts 293°
2026-04-30 19:43 61.82468 -2.78764 36000 ft 465 kts 293°
2026-04-30 19:44 61.86286 -2.97510 36000 ft 465 kts 293°
2026-04-30 19:44 61.88818 -3.10038 35999 ft 465 kts 293°
2026-04-30 19:45 61.91346 -3.22620 35999 ft 465 kts 293°
2026-04-30 19:45 61.93843 -3.35130 35999 ft 465 kts 293°
2026-04-30 19:46 61.96354 -3.47785 35999 ft 465 kts 293°
2026-04-30 19:46 61.98843 -3.60412 35999 ft 465 kts 293°
2026-04-30 19:47 62.01323 -3.73066 36000 ft 465 kts 292°
2026-04-30 19:47 62.03799 -3.85785 36000 ft 465 kts 292°
2026-04-30 19:48 62.06251 -3.98458 36000 ft 465 kts 292°
2026-04-30 19:48 62.08698 -4.11189 35999 ft 465 kts 292°
2026-04-30 19:49 62.11142 -4.23981 36000 ft 465 kts 292°
2026-04-30 19:49 62.14768 -4.43115 36000 ft 465 kts 292°
2026-04-30 19:50 62.17178 -4.55938 36000 ft 465 kts 292°
2026-04-30 19:50 62.19526 -4.68508 36000 ft 465 kts 291°
2026-04-30 19:51 62.21802 -4.80775 35999 ft 465 kts 291°
2026-04-30 19:51 62.24057 -4.93002 35999 ft 465 kts 291°
2026-04-30 19:52 62.26323 -5.05366 35999 ft 465 kts 291°
2026-04-30 19:52 62.28563 -5.17660 36000 ft 465 kts 291°
2026-04-30 19:53 62.30821 -5.30142 36000 ft 465 kts 291°
2026-04-30 19:53 62.33143 -5.43056 36000 ft 465 kts 291°
2026-04-30 19:54 62.35464 -5.56055 36000 ft 465 kts 291°
2026-04-30 19:54 62.37757 -5.68976 36000 ft 465 kts 290°
2026-04-30 19:55 62.40050 -5.81992 35999 ft 465 kts 290°
2026-04-30 19:55 62.42330 -5.95020 35999 ft 465 kts 290°
2026-04-30 19:56 62.44594 -6.08045 36000 ft 465 kts 290°
2026-04-30 19:56 62.46816 -6.20917 36000 ft 465 kts 290°
2026-04-30 19:57 62.48996 -6.33634 36000 ft 465 kts 290°
2026-04-30 19:57 62.51240 -6.46817 36000 ft 465 kts 290°
2026-04-30 19:58 62.53458 -6.59934 36000 ft 465 kts 290°
2026-04-30 19:58 62.55659 -6.73040 36000 ft 465 kts 290°
2026-04-30 19:59 62.57848 -6.86174 36000 ft 465 kts 290°
2026-04-30 20:00 62.61129 -7.06029 35999 ft 465 kts 290°
2026-04-30 20:00 62.63280 -7.19160 35999 ft 465 kts 290°
2026-04-30 20:01 62.66507 -7.39045 35999 ft 465 kts 290°
2026-04-30 20:01 62.68627 -7.52223 35999 ft 465 kts 290°
2026-04-30 20:02 62.71799 -7.72127 36000 ft 465 kts 289°
2026-04-30 20:03 62.74951 -7.92121 36000 ft 465 kts 289°
2026-04-30 20:03 62.77040 -8.05501 35999 ft 465 kts 289°
2026-04-30 20:04 62.79098 -8.18773 35999 ft 465 kts 289°
2026-04-30 20:05 62.82184 -8.38864 35999 ft 465 kts 289°
2026-04-30 20:05 62.85228 -8.58921 35999 ft 465 kts 289°
2026-04-30 20:06 62.87255 -8.72395 36000 ft 465 kts 288°
2026-04-30 20:06 62.89260 -8.85834 36000 ft 465 kts 288°
2026-04-30 20:07 62.91246 -8.99243 35999 ft 465 kts 288°
2026-04-30 20:08 62.94215 -9.19492 35999 ft 465 kts 288°
2026-04-30 20:08 62.96167 -9.32931 35999 ft 465 kts 288°
2026-04-30 20:09 62.98115 -9.46453 35999 ft 465 kts 288°
2026-04-30 20:09 63.01020 -9.66823 35999 ft 465 kts 287°
2026-04-30 20:10 63.03877 -9.87092 36000 ft 465 kts 287°
2026-04-30 20:11 63.06724 -10.07545 35999 ft 465 kts 287°
2026-04-30 20:11 63.08597 -10.21138 35999 ft 465 kts 287°
2026-04-30 20:12 63.11393 -10.41642 36000 ft 465 kts 287°
2026-04-30 20:13 63.13224 -10.55207 36000 ft 465 kts 287°
2026-04-30 20:13 63.15056 -10.68894 36000 ft 465 kts 286°
2026-04-30 20:14 63.16884 -10.82664 35999 ft 465 kts 286°
2026-04-30 20:14 63.18684 -10.96345 35999 ft 465 kts 286°
2026-04-30 20:15 63.20471 -11.10039 36000 ft 465 kts 286°
2026-04-30 20:15 63.22254 -11.23828 36000 ft 465 kts 286°
2026-04-30 20:16 63.24020 -11.37597 36000 ft 465 kts 286°
2026-04-30 20:16 63.25764 -11.51323 36000 ft 465 kts 286°
2026-04-30 20:17 63.27503 -11.65124 36000 ft 465 kts 285°
2026-04-30 20:17 63.29229 -11.78943 35999 ft 465 kts 285°
2026-04-30 20:18 63.30946 -11.92819 35999 ft 465 kts 285°
2026-04-30 20:18 63.32640 -12.06629 36000 ft 465 kts 285°
2026-04-30 20:19 63.34325 -12.20491 35999 ft 465 kts 285°
2026-04-30 20:19 63.36003 -12.34425 36000 ft 465 kts 285°
2026-04-30 20:20 63.37659 -12.48307 36000 ft 465 kts 285°
2026-04-30 20:20 63.39295 -12.62147 36000 ft 465 kts 285°
2026-04-30 20:21 63.40936 -12.76161 35999 ft 465 kts 284°
2026-04-30 20:21 63.42552 -12.90089 35999 ft 465 kts 284°
2026-04-30 20:22 63.44150 -13.04005 35999 ft 465 kts 284°
2026-04-30 20:22 63.45744 -13.18002 36000 ft 465 kts 284°
2026-04-30 20:23 63.47321 -13.31994 36000 ft 465 kts 284°
2026-04-30 20:23 63.48882 -13.45982 36000 ft 465 kts 284°
2026-04-30 20:24 63.50431 -13.60004 36000 ft 465 kts 284°
2026-04-30 20:24 63.51967 -13.74041 35991 ft 455 kts 283°
2026-04-30 20:24 63.52702 -13.80800 35995 ft 444 kts 283°
2026-04-30 20:25 63.54147 -13.94192 36003 ft 445 kts 283°
2026-04-30 20:26 63.56316 -14.14553 36000 ft 449 kts 283°
2026-04-30 20:26 63.58458 -14.34961 35999 ft 447 kts 283°
2026-04-30 20:27 63.61258 -14.62112 36003 ft 451 kts 283°
2026-04-30 20:28 63.64080 -14.90061 35998 ft 461 kts 282°
2026-04-30 20:30 63.67554 -15.25062 35999 ft 459 kts 283°
2026-04-30 20:31 63.71564 -15.67145 35999 ft 459 kts 282°
2026-04-30 20:32 63.74824 -16.02352 36000 ft 459 kts 282°
2026-04-30 20:33 63.76741 -16.23501 35999 ft 459 kts 282°
2026-04-30 20:34 63.78631 -16.44724 35999 ft 459 kts 282°
2026-04-30 20:35 63.80422 -16.65979 35998 ft 459 kts 277°
2026-04-30 20:35 63.81441 -16.87552 36000 ft 459 kts 276°
2026-04-30 20:36 63.82133 -17.01861 36000 ft 459 kts 276°
2026-04-30 20:37 63.83167 -17.23403 35999 ft 459 kts 276°
2026-04-30 20:37 63.83848 -17.37797 35999 ft 459 kts 276°
2026-04-30 20:38 63.84516 -17.52188 35999 ft 459 kts 276°
2026-04-30 20:38 63.85171 -17.66561 35999 ft 459 kts 275°
2026-04-30 20:39 63.86129 -17.88130 36000 ft 459 kts 275°
2026-04-30 20:40 63.87053 -18.09662 35999 ft 459 kts 275°
2026-04-30 20:40 63.87655 -18.24095 35999 ft 459 kts 275°
2026-04-30 20:41 63.88527 -18.45673 35999 ft 459 kts 275°
2026-04-30 20:41 63.89092 -18.60100 35999 ft 459 kts 275°
2026-04-30 20:42 63.89643 -18.74534 35999 ft 458 kts 275°
2026-04-30 20:42 63.90169 -18.88683 34928 ft 449 kts 275°
2026-04-30 20:43 63.90426 -18.95735 34174 ft 448 kts 275°
2026-04-30 20:43 63.90679 -19.02782 33402 ft 448 kts 275°
2026-04-30 20:43 63.90927 -19.09779 32617 ft 447 kts 275°
2026-04-30 20:44 63.91411 -19.23730 31351 ft 438 kts 275°
2026-04-30 20:44 63.91644 -19.30584 30771 ft 433 kts 275°
2026-04-30 20:44 63.92093 -19.44083 29612 ft 423 kts 275°
2026-04-30 20:45 63.92518 -19.57216 28474 ft 414 kts 275°
2026-04-30 20:45 63.92725 -19.63725 27910 ft 416 kts 275°
2026-04-30 20:45 63.92928 -19.70244 27335 ft 413 kts 274°
2026-04-30 20:46 63.93510 -19.89440 25640 ft 399 kts 274°
2026-04-30 20:46 63.93693 -19.95649 25087 ft 394 kts 274°
2026-04-30 20:47 63.94047 -20.07952 23988 ft 386 kts 274°
2026-04-30 20:47 63.94216 -20.13932 23450 ft 384 kts 274°
2026-04-30 20:48 63.94551 -20.26109 22346 ft 382 kts 274°
2026-04-30 20:48 63.94710 -20.32037 21809 ft 377 kts 274°
2026-04-30 20:48 63.94868 -20.37980 21268 ft 373 kts 274°
2026-04-30 20:48 63.95020 -20.43819 20734 ft 369 kts 274°
2026-04-30 20:49 63.95169 -20.49620 20202 ft 365 kts 274°
2026-04-30 20:49 63.95313 -20.55310 19678 ft 361 kts 274°
2026-04-30 20:49 63.95454 -20.60975 19154 ft 358 kts 274°
2026-04-30 20:50 63.95731 -20.72368 18098 ft 358 kts 273°
2026-04-30 20:50 63.95863 -20.77940 17579 ft 354 kts 273°
2026-04-30 20:50 63.95993 -20.83532 17057 ft 350 kts 273°
2026-04-30 20:50 63.96119 -20.89002 16544 ft 347 kts 273°
2026-04-30 20:51 63.96241 -20.94413 16036 ft 343 kts 273°
2026-04-30 20:51 63.96476 -21.05110 15027 ft 336 kts 273°
2026-04-30 20:51 63.96591 -21.10459 14522 ft 338 kts 273°
2026-04-30 20:52 63.96703 -21.15780 14014 ft 337 kts 273°
2026-04-30 20:52 63.96813 -21.21072 13511 ft 334 kts 273°
2026-04-30 20:52 63.97023 -21.31476 12515 ft 327 kts 273°
2026-04-30 20:53 63.97124 -21.36637 12019 ft 324 kts 273°
2026-04-30 20:53 63.97222 -21.41702 11530 ft 321 kts 273°
2026-04-30 20:53 63.97417 -21.46691 11043 ft 318 kts 282°
2026-04-30 20:54 63.99056 -21.55829 10333 ft 303 kts 296°
2026-04-30 20:54 63.99926 -21.60085 10223 ft 289 kts 295°
2026-04-30 20:54 64.00747 -21.64143 10024 ft 280 kts 295°
2026-04-30 20:55 64.02352 -21.72098 9339 ft 274 kts 294°
2026-04-30 20:55 64.03142 -21.76033 8997 ft 271 kts 294°
2026-04-30 20:55 64.03920 -21.79910 8661 ft 269 kts 294°
2026-04-30 20:56 64.05456 -21.87589 7996 ft 264 kts 294°
2026-04-30 20:56 64.06207 -21.91357 7668 ft 261 kts 294°
2026-04-30 20:56 64.07724 -21.98989 7122 ft 263 kts 294°
2026-04-30 20:57 64.08469 -22.02748 6806 ft 260 kts 294°
2026-04-30 20:57 64.09220 -22.06539 6480 ft 258 kts 294°
2026-04-30 20:57 64.09952 -22.10248 6158 ft 255 kts 294°
2026-04-30 20:58 64.11423 -22.17713 5504 ft 258 kts 294°
2026-04-30 20:58 64.12156 -22.21446 5175 ft 256 kts 294°
2026-04-30 20:58 64.12880 -22.25136 4849 ft 254 kts 294°
2026-04-30 20:58 64.13602 -22.28823 4545 ft 251 kts 294°
2026-04-30 20:59 64.14962 -22.35792 4349 ft 228 kts 294°
2026-04-30 20:59 64.15607 -22.39100 4277 ft 232 kts 294°
2026-04-30 21:00 64.15810 -22.46048 3923 ft 220 kts 250°
2026-04-30 21:00 64.14746 -22.52504 3506 ft 212 kts 250°
2026-04-30 21:01 64.13963 -22.57252 3244 ft 203 kts 243°
2026-04-30 21:01 64.13664 -22.58379 3170 ft 200 kts 232°
2026-04-30 21:01 64.11398 -22.60376 3166 ft 166 kts 179°
2026-04-30 21:02 64.10236 -22.60477 3136 ft 174 kts 182°
2026-04-30 21:02 64.09031 -22.60500 3107 ft 172 kts 181°
2026-04-30 21:02 64.07843 -22.60518 3111 ft 171 kts 181°
2026-04-30 21:02 64.06736 -22.60523 3132 ft 149 kts 180°
2026-04-30 21:03 64.05674 -22.60528 3144 ft 154 kts 180°
2026-04-30 21:03 64.04591 -22.60530 2919 ft 167 kts 180°
2026-04-30 21:03 64.03406 -22.60531 1913 ft 179 kts 180°
2026-04-30 21:03 64.02206 -22.60533 1243 ft 170 kts 180°
2026-04-30 21:04 64.01044 -22.60537 716 ft 163 kts 180°
2026-04-30 21:04 63.99981 -22.60544 351 ft 148 kts 181°
2026-04-30 21:04 63.98284 -22.60553 157 ft 64 kts 179°
2026-04-30 21:05 63.98063 -22.60551 159 ft 10 kts 180°
2026-04-30 21:05 63.97929 -22.60550 158 ft 28 kts 180°
2026-04-30 21:05 63.97659 -22.60550 156 ft 46 kts 180°
2026-04-30 21:05 63.97464 -22.60622 150 ft 17 kts 236°
2026-04-30 21:06 63.97456 -22.60656 149 ft 1 kts 242°
2026-04-30 21:06 63.97443 -22.60736 147 ft 10 kts 259°
2026-04-30 21:06 63.97482 -22.60934 145 ft 17 kts 336°
2026-04-30 21:06 63.97606 -22.60955 147 ft 19 kts
2026-04-30 21:07 63.97760 -22.60940 148 ft 25 kts
2026-04-30 21:07 63.97937 -22.60950 150 ft 25 kts 359°
2026-04-30 21:07 63.98096 -22.60943 151 ft 20 kts
2026-04-30 21:07 63.98232 -22.60947 151 ft 21 kts
2026-04-30 21:08 63.98412 -22.60950 149 ft 31 kts
2026-04-30 21:08 63.98628 -22.60953 148 ft 26 kts
2026-04-30 21:08 63.98801 -22.60953 148 ft 24 kts
2026-04-30 21:08 63.98983 -22.60949 144 ft 27 kts